owner,sensor,date,latitude,longitude,vertical_datum,wind_speed,wind_to_direction,wind_speed_of_gust,qcFlag 
TABS,ioos:station:wmo:42045:1,2014-10-01T00:00:00Z,26.2168,-96.4998,4.0,0.0,0.0,0.0,'11111222,11111222,11111222' 
TABS,ioos:station:wmo:42045:1,2014-10-01T00:30:00Z,26.2168,-96.4998,4.0,3.143405796,132.1636622,3.92,'11111222,11111222,11111222' 
TABS,ioos:station:wmo:42045:1,2014-10-01T01:00:00Z,26.2168,-96.4998,4.0,3.236943002,145.5738144,4.09,'11111222,11111222,11111222' 
TABS,ioos:station:wmo:42045:1,2014-10-01T01:30:00Z,26.2168,-96.4998,4.0,3.484551621,142.1108941,4.26,'11111222,11111222,11111222' 
TABS,ioos:station:wmo:42045:1,2014-10-01T02:00:00Z,26.2168,-96.4998,4.0,3.196075719,143.5247934,3.89,'11111222,11111222,11111222' 
TABS,ioos:station:wmo:42045:1,2014-10-01T02:30:00Z,26.2168,-96.4998,4.0,3.761914406,144.958363,4.49,'11111222,11111222,11111222' 
TABS,ioos:station:wmo:42045:1,2014-10-01T03:00:00Z,26.2168,-96.4998,4.0,4.481651481,154.3500442,5.41,'11111222,11111222,11111222' 
TABS,ioos:station:wmo:42045:1,2014-10-01T03:30:00Z,26.2168,-96.4998,4.0,4.870164268,156.9098082,5.67,'11111222,11111222,11111222' 
TABS,ioos:station:wmo:42045:1,2014-10-01T04:00:00Z,26.2168,-96.4998,4.0,4.431624984,157.0223674,5.57,'11111222,11111222,11111222' 
TABS,ioos:station:wmo:42045:1,2014-10-01T04:30:00Z,26.2168,-96.4998,4.0,5.400416651,159.8539931,6.5,'11111222,11111222,11111222' 
TABS,ioos:station:wmo:42045:1,2014-10-01T05:00:00Z,26.2168,-96.4998,4.0,5.788350369,162.8174692,6.94,'11111222,11111222,11111222' 
TABS,ioos:station:wmo:42045:1,2014-10-01T05:30:00Z,26.2168,-96.4998,4.0,6.076454558,166.9702869,7.34,'11111222,11111222,11111222' 
TABS,ioos:station:wmo:42045:1,2014-10-01T06:00:00Z,26.2168,-96.4998,4.0,5.784263134,169.6422299,6.94,'11111222,11111222,11111222' 
TABS,ioos:station:wmo:42045:1,2014-10-01T06:30:00Z,26.2168,-96.4998,4.0,6.147723156,171.4878982,7.56,'11111222,11111222,11111222' 
TABS,ioos:station:wmo:42045:1,2014-10-01T07:00:00Z,26.2168,-96.4998,4.0,5.676653944,171.898675,6.61,'11111222,11111222,11111222' 
TABS,ioos:station:wmo:42045:1,2014-10-01T07:30:00Z,26.2168,-96.4998,4.0,5.682930582,174.851433,6.57,'11111222,11111222,11111222' 
TABS,ioos:station:wmo:42045:1,2014-10-01T08:00:00Z,26.2168,-96.4998,4.0,5.763826854,182.0881894,6.6,'11111222,11111222,11111222' 
TABS,ioos:station:wmo:42045:1,2014-10-01T08:30:00Z,26.2168,-96.4998,4.0,6.08237618,178.3986113,7.19,'11111222,11111222,11111222' 
TABS,ioos:station:wmo:42045:1,2014-10-01T09:00:00Z,26.2168,-96.4998,4.0,6.15007317,179.7207217,7.42,'11111222,11111222,11111222' 
TABS,ioos:station:wmo:42045:1,2014-10-01T09:30:00Z,26.2168,-96.4998,4.0,5.990033389,180.1915141,7.2,'11111222,11111222,11111222' 
TABS,ioos:station:wmo:42045:1,2014-10-01T10:00:00Z,26.2168,-96.4998,4.0,6.200653191,179.1685579,7.15,'11111222,11111222,11111222' 
TABS,ioos:station:wmo:42045:1,2014-10-01T10:30:00Z,26.2168,-96.4998,4.0,5.74843457,175.4104032,6.72,'11111222,11111222,11111222' 
TABS,ioos:station:wmo:42045:1,2014-10-01T11:00:00Z,26.2168,-96.4998,4.0,5.866685606,177.2646152,7.01,'11111222,11111222,11111222' 
TABS,ioos:station:wmo:42045:1,2014-10-01T11:30:00Z,26.2168,-96.4998,4.0,5.691722059,178.5907601,6.63,'11111222,11111222,11111222' 
TABS,ioos:station:wmo:42045:1,2014-10-01T12:00:00Z,26.2168,-96.4998,4.0,5.483885484,184.0783738,6.44,'11111222,11111222,11111222' 
TABS,ioos:station:wmo:42045:1,2014-10-01T12:30:00Z,26.2168,-96.4998,4.0,5.025942698,185.8242244,5.97,'11111222,11111222,11111222' 
TABS,ioos:station:wmo:42045:1,2014-10-01T13:00:00Z,26.2168,-96.4998,4.0,5.240009542,179.8908678,6.28,'11111222,11111222,11111222' 
TABS,ioos:station:wmo:42045:1,2014-10-01T13:30:00Z,26.2168,-96.4998,4.0,5.066675439,182.9416686,6.5,'11111222,11111222,11111222' 
TABS,ioos:station:wmo:42045:1,2014-10-01T14:00:00Z,26.2168,-96.4998,4.0,5.050485125,179.2060643,6.11,'11111222,11111222,11111222' 
TABS,ioos:station:wmo:42045:1,2014-10-01T14:30:00Z,26.2168,-96.4998,4.0,4.896907187,183.0437388,5.71,'11111222,11111222,11111222' 
TABS,ioos:station:wmo:42045:1,2014-10-01T15:00:00Z,26.2168,-96.4998,4.0,4.278527784,176.3821177,5.38,'11111222,11111222,11111222' 
TABS,ioos:station:wmo:42045:1,2014-10-01T15:30:00Z,26.2168,-96.4998,4.0,4.635180687,172.9365387,5.66,'11111222,11111222,11111222' 
TABS,ioos:station:wmo:42045:1,2014-10-01T16:00:00Z,26.2168,-96.4998,4.0,4.932443613,174.5323584,5.96,'11111222,11111222,11111222' 
TABS,ioos:station:wmo:42045:1,2014-10-01T16:30:00Z,26.2168,-96.4998,4.0,5.209808058,170.6102305,6.24,'11111222,11111222,11111222' 
TABS,ioos:station:wmo:42045:1,2014-10-01T17:00:00Z,26.2168,-96.4998,4.0,5.418265405,166.1178821,6.22,'11111222,11111222,11111222' 
TABS,ioos:station:wmo:42045:1,2014-10-01T17:30:00Z,26.2168,-96.4998,4.0,5.251218906,169.9100872,6.39,'11111222,11111222,11111222' 
TABS,ioos:station:wmo:42045:1,2014-10-01T18:00:00Z,26.2168,-96.4998,4.0,4.5587937,167.4578,5.97,'11111222,11111222,11111222' 
TABS,ioos:station:wmo:42045:1,2014-10-01T18:30:00Z,26.2168,-96.4998,4.0,4.832235508,167.0856086,5.76,'11111222,11111222,11111222' 
TABS,ioos:station:wmo:42045:1,2014-10-01T19:00:00Z,26.2168,-96.4998,4.0,4.220924069,173.060415,5.19,'11111222,11111222,11111222' 
TABS,ioos:station:wmo:42045:1,2014-10-01T19:30:00Z,26.2168,-96.4998,4.0,5.244158655,168.561743,6.11,'11111222,11111222,11111222' 
TABS,ioos:station:wmo:42045:1,2014-10-01T20:00:00Z,26.2168,-96.4998,4.0,5.753120892,172.2081506,6.52,'11111222,11111222,11111222' 
TABS,ioos:station:wmo:42045:1,2014-10-01T20:30:00Z,26.2168,-96.4998,4.0,6.143427382,165.9639998,7.29,'11111222,11111222,11111222' 
TABS,ioos:station:wmo:42045:1,2014-10-01T21:00:00Z,26.2168,-96.4998,4.0,6.461834105,162.7149896,7.4,'11111222,11111222,11111222' 
TABS,ioos:station:wmo:42045:1,2014-10-01T21:30:00Z,26.2168,-96.4998,4.0,6.468894805,159.2679834,7.99,'11111222,11111222,11111222' 
TABS,ioos:station:wmo:42045:1,2014-10-01T22:00:00Z,26.2168,-96.4998,4.0,6.465786882,160.1079999,7.66,'11111222,11111222,11111222' 
TABS,ioos:station:wmo:42045:1,2014-10-01T22:30:00Z,26.2168,-96.4998,4.0,6.691375046,163.3256098,8.1,'11111222,11111222,11111222' 
TABS,ioos:station:wmo:42045:1,2014-10-01T23:00:00Z,26.2168,-96.4998,4.0,5.990475774,155.0180441,6.98,'11111222,11111222,11111222' 
TABS,ioos:station:wmo:42045:1,2014-10-01T23:30:00Z,26.2168,-96.4998,4.0,6.600030303,157.554021,7.79,'11111222,11111222,11111222' 
TABS,ioos:station:wmo:42045:1,2014-10-02T00:00:00Z,26.2168,-96.4998,4.0,6.681616571,157.6574417,7.71,'11111222,11111222,11111222' 
TABS,ioos:station:wmo:42045:1,2014-10-02T00:30:00Z,26.2168,-96.4998,4.0,6.998657014,156.952169,8.4,'11111222,11111222,11111222' 
TABS,ioos:station:wmo:42045:1,2014-10-02T01:00:00Z,26.2168,-96.4998,4.0,7.111575072,154.3360221,8.64,'11111222,11111222,11111222' 
TABS,ioos:station:wmo:42045:1,2014-10-02T01:30:00Z,26.2168,-96.4998,4.0,7.634461343,156.2892397,9.19,'11111222,11111222,11111222' 
TABS,ioos:station:wmo:42045:1,2014-10-02T02:00:00Z,26.2168,-96.4998,4.0,7.489305709,155.043458,8.97,'11111222,11111222,11111222' 
TABS,ioos:station:wmo:42045:1,2014-10-02T02:30:00Z,26.2168,-96.4998,4.0,7.745062944,156.0828449,9.04,'11111222,11111222,11111222' 
TABS,ioos:station:wmo:42045:1,2014-10-02T03:00:00Z,26.2168,-96.4998,4.0,8.033735121,159.602811,9.78,'11111222,11111222,11111222' 
TABS,ioos:station:wmo:42045:1,2014-10-02T03:30:00Z,26.2168,-96.4998,4.0,7.734662242,157.5798355,9.3,'11111222,11111222,11111222' 
TABS,ioos:station:wmo:42045:1,2014-10-02T04:00:00Z,26.2168,-96.4998,4.0,7.665644135,157.8518622,9.23,'11111222,11111222,11111222' 
TABS,ioos:station:wmo:42045:1,2014-10-02T04:30:00Z,26.2168,-96.4998,4.0,7.734604062,158.7766036,9.18,'11111222,11111222,11111222' 
TABS,ioos:station:wmo:42045:1,2014-10-02T05:00:00Z,26.2168,-96.4998,4.0,7.461313557,158.4555256,8.7,'11111222,11111222,11111222' 
TABS,ioos:station:wmo:42045:1,2014-10-02T05:30:00Z,26.2168,-96.4998,4.0,7.483588711,158.4405443,9.34,'11111222,11111222,11111222' 
TABS,ioos:station:wmo:42045:1,2014-10-02T06:00:00Z,26.2168,-96.4998,4.0,7.746515346,160.2320004,9.13,'11111222,11111222,11111222' 
TABS,ioos:station:wmo:42045:1,2014-10-02T06:30:00Z,26.2168,-96.4998,4.0,7.086670586,161.4886038,9.43,'11111222,11111222,11111222' 
TABS,ioos:station:wmo:42045:1,2014-10-02T07:00:00Z,26.2168,-96.4998,4.0,7.434547733,161.7358995,8.65,'11111222,11111222,11111222' 
TABS,ioos:station:wmo:42045:1,2014-10-02T07:30:00Z,26.2168,-96.4998,4.0,7.913640123,163.5575926,9.36,'11111222,11111222,11111222' 
TABS,ioos:station:wmo:42045:1,2014-10-02T08:00:00Z,26.2168,-96.4998,4.0,7.924424269,164.3329357,9.69,'11111222,11111222,11111222' 
TABS,ioos:station:wmo:42045:1,2014-10-02T08:30:00Z,26.2168,-96.4998,4.0,7.226153887,165.0024311,8.45,'11111222,11111222,11111222' 
TABS,ioos:station:wmo:42045:1,2014-10-02T09:00:00Z,26.2168,-96.4998,4.0,7.272310499,160.1450425,8.53,'11111222,11111222,11111222' 
TABS,ioos:station:wmo:42045:1,2014-10-02T09:30:00Z,26.2168,-96.4998,4.0,7.88965145,163.1271086,9.23,'11111222,11111222,11111222' 
TABS,ioos:station:wmo:42045:1,2014-10-02T10:00:00Z,26.2168,-96.4998,4.0,7.46442898,163.5803864,8.78,'11111222,11111222,11111222' 
TABS,ioos:station:wmo:42045:1,2014-10-02T10:30:00Z,26.2168,-96.4998,4.0,7.88416768,162.2777289,9.45,'11111222,11111222,11111222' 
TABS,ioos:station:wmo:42045:1,2014-10-02T11:00:00Z,26.2168,-96.4998,4.0,7.48511189,161.5410987,9.09,'11111222,11111222,11111222' 
TABS,ioos:station:wmo:42045:1,2014-10-02T11:30:00Z,26.2168,-96.4998,4.0,7.211726562,160.3090227,8.69,'11111222,11111222,11111222' 
TABS,ioos:station:wmo:42045:1,2014-10-02T12:00:00Z,26.2168,-96.4998,4.0,7.412422006,161.7608523,8.55,'11111222,11111222,11111222' 
TABS,ioos:station:wmo:42045:1,2014-10-02T12:30:00Z,26.2168,-96.4998,4.0,7.299328736,160.7213225,8.78,'11111222,11111222,11111222' 
TABS,ioos:station:wmo:42045:1,2014-10-02T13:00:00Z,26.2168,-96.4998,4.0,7.39058861,163.3307075,9.43,'11111222,11111222,11111222' 
TABS,ioos:station:wmo:42045:1,2014-10-02T13:30:00Z,26.2168,-96.4998,4.0,7.37143134,159.8444939,9.04,'11111222,11111222,11111222' 
TABS,ioos:station:wmo:42045:1,2014-10-02T14:00:00Z,26.2168,-96.4998,4.0,7.697194294,161.9890117,9.58,'11111222,11111222,11111222' 
TABS,ioos:station:wmo:42045:1,2014-10-02T14:30:00Z,26.2168,-96.4998,4.0,7.257582242,161.1908287,8.65,'11111222,11111222,11111222' 
TABS,ioos:station:wmo:42045:1,2014-10-02T15:00:00Z,26.2168,-96.4998,4.0,7.06578375,159.5391207,8.47,'11111222,11111222,11111222' 
TABS,ioos:station:wmo:42045:1,2014-10-02T15:30:00Z,26.2168,-96.4998,4.0,7.380819738,159.8712424,9.03,'11111222,11111222,11111222' 
TABS,ioos:station:wmo:42045:1,2014-10-02T16:00:00Z,26.2168,-96.4998,4.0,6.865311355,161.4861307,8.21,'11111222,11111222,11111222' 
TABS,ioos:station:wmo:42045:1,2014-10-02T16:30:00Z,26.2168,-96.4998,4.0,6.840621317,160.7971706,8.09,'11111222,11111222,11111222' 
TABS,ioos:station:wmo:42045:1,2014-10-02T17:00:00Z,26.2168,-96.4998,4.0,6.314467515,159.1256124,7.44,'11111222,11111222,11111222' 
TABS,ioos:station:wmo:42045:1,2014-10-02T17:30:00Z,26.2168,-96.4998,4.0,6.092766203,158.5306426,7.77,'11111222,11111222,11111222' 
TABS,ioos:station:wmo:42045:1,2014-10-02T18:00:00Z,26.2168,-96.4998,4.0,6.198524018,159.6064928,7.99,'11111222,11111222,11111222' 
TABS,ioos:station:wmo:42045:1,2014-10-02T18:30:00Z,26.2168,-96.4998,4.0,6.338596059,160.3646736,7.43,'11111222,11111222,11111222' 
TABS,ioos:station:wmo:42045:1,2014-10-02T19:00:00Z,26.2168,-96.4998,4.0,5.578315158,161.8251472,6.46,'11111222,11111222,11111222' 
TABS,ioos:station:wmo:42045:1,2014-10-02T19:30:00Z,26.2168,-96.4998,4.0,5.716397467,159.0922789,6.9,'11111222,11111222,11111222' 
TABS,ioos:station:wmo:42045:1,2014-10-02T20:00:00Z,26.2168,-96.4998,4.0,5.790759881,155.5153698,6.97,'11111222,11111222,11111222' 
TABS,ioos:station:wmo:42045:1,2014-10-02T20:30:00Z,26.2168,-96.4998,4.0,4.601934376,153.8249817,5.73,'11111222,11111222,11111222' 
TABS,ioos:station:wmo:42045:1,2014-10-02T21:00:00Z,26.2168,-96.4998,4.0,4.823712263,150.2995969,6.02,'11111222,11111222,11111222' 
TABS,ioos:station:wmo:42045:1,2014-10-02T21:30:00Z,26.2168,-96.4998,4.0,5.107249749,153.7362465,5.99,'11111222,11111222,11111222' 
TABS,ioos:station:wmo:42045:1,2014-10-02T22:00:00Z,26.2168,-96.4998,4.0,5.379386582,137.561834,6.36,'11111222,11111222,11111222' 
TABS,ioos:station:wmo:42045:1,2014-10-02T22:30:00Z,26.2168,-96.4998,4.0,5.802689032,137.2351093,7.06,'11111222,11111222,11111222' 
TABS,ioos:station:wmo:42045:1,2014-10-02T23:00:00Z,26.2168,-96.4998,4.0,6.15,139.5505862,7.22,'11111222,11111222,11111222' 
TABS,ioos:station:wmo:42045:1,2014-10-02T23:30:00Z,26.2168,-96.4998,4.0,6.053759163,140.6309853,7.49,'11111222,11111222,11111222' 
TABS,ioos:station:wmo:42045:1,2014-10-03T00:00:00Z,26.2168,-96.4998,4.0,6.010532422,142.3677732,7.41,'11111222,11111222,11111222' 
TABS,ioos:station:wmo:42045:1,2014-10-03T00:30:00Z,26.2168,-96.4998,4.0,6.528162069,143.53413,7.53,'11111222,11111222,11111222' 
TABS,ioos:station:wmo:42045:1,2014-10-03T01:00:00Z,26.2168,-96.4998,4.0,5.991034969,149.8402201,7.19,'11111222,11111222,11111222' 
TABS,ioos:station:wmo:42045:1,2014-10-03T01:30:00Z,26.2168,-96.4998,4.0,6.971771654,155.4202835,7.97,'11111222,11111222,11111222' 
TABS,ioos:station:wmo:42045:1,2014-10-03T02:00:00Z,26.2168,-96.4998,4.0,6.641596194,157.141502,7.9,'11111222,11111222,11111222' 
TABS,ioos:station:wmo:42045:1,2014-10-03T02:30:00Z,26.2168,-96.4998,4.0,6.661538861,157.4002468,8.22,'11111222,11111222,11111222' 
TABS,ioos:station:wmo:42045:1,2014-10-03T03:00:00Z,26.2168,-96.4998,4.0,6.726165327,153.701888,8.08,'11111222,11111222,11111222' 
TABS,ioos:station:wmo:42045:1,2014-10-03T03:30:00Z,26.2168,-96.4998,4.0,6.922802901,158.4754919,8.43,'11111222,11111222,11111222' 
TABS,ioos:station:wmo:42045:1,2014-10-03T04:00:00Z,26.2168,-96.4998,4.0,6.344540961,155.2125132,7.73,'11111222,11111222,11111222' 
TABS,ioos:station:wmo:42045:1,2014-10-03T04:30:00Z,26.2168,-96.4998,4.0,6.776023908,158.1674485,7.91,'11111222,11111222,11111222' 
TABS,ioos:station:wmo:42045:1,2014-10-03T05:00:00Z,26.2168,-96.4998,4.0,6.924572189,160.073704,8.73,'11111222,11111222,11111222' 
TABS,ioos:station:wmo:42045:1,2014-10-03T05:30:00Z,26.2168,-96.4998,4.0,7.39127188,162.5213693,8.78,'11111222,11111222,11111222' 
TABS,ioos:station:wmo:42045:1,2014-10-03T06:00:00Z,26.2168,-96.4998,4.0,7.607502875,168.3210414,9.74,'11111222,11111222,11111222' 
TABS,ioos:station:wmo:42045:1,2014-10-03T06:30:00Z,26.2168,-96.4998,4.0,7.805158551,167.4953185,9.07,'11111222,11111222,11111222' 
TABS,ioos:station:wmo:42045:1,2014-10-03T07:00:00Z,26.2168,-96.4998,4.0,7.126296373,171.6086088,8.52,'11111222,11111222,11111222' 
TABS,ioos:station:wmo:42045:1,2014-10-03T07:30:00Z,26.2168,-96.4998,4.0,7.059412157,170.8714863,8.52,'11111222,11111222,11111222' 
TABS,ioos:station:wmo:42045:1,2014-10-03T08:00:00Z,26.2168,-96.4998,4.0,7.216848343,172.1957308,9.06,'11111222,11111222,11111222' 
TABS,ioos:station:wmo:42045:1,2014-10-03T08:30:00Z,26.2168,-96.4998,4.0,6.1,169.6113769,7.68,'11111222,11111222,11111222' 
TABS,ioos:station:wmo:42045:1,2014-10-03T09:00:00Z,26.2168,-96.4998,4.0,6.012071191,173.2180112,6.98,'11111222,11111222,11111222' 
TABS,ioos:station:wmo:42045:1,2014-10-03T09:30:00Z,26.2168,-96.4998,4.0,5.410406639,172.9934272,6.37,'11111222,11111222,11111222' 
TABS,ioos:station:wmo:42045:1,2014-10-03T10:00:00Z,26.2168,-96.4998,4.0,5.002969118,175.873806,5.81,'11111222,11111222,11111222' 
TABS,ioos:station:wmo:42045:1,2014-10-03T10:30:00Z,26.2168,-96.4998,4.0,4.803009473,177.9718375,6.08,'11111222,11111222,11111222' 
TABS,ioos:station:wmo:42045:1,2014-10-03T11:00:00Z,26.2168,-96.4998,4.0,4.590174289,179.5009146,5.49,'11111222,11111222,11111222' 
TABS,ioos:station:wmo:42045:1,2014-10-03T11:30:00Z,26.2168,-96.4998,4.0,4.890010225,180.1173793,5.72,'11111222,11111222,11111222' 
TABS,ioos:station:wmo:42045:1,2014-10-03T12:00:00Z,26.2168,-96.4998,4.0,3.965362531,200.6745869,5.19,'11111222,11111222,11111222' 
TABS,ioos:station:wmo:42045:1,2014-10-03T12:30:00Z,26.2168,-96.4998,4.0,3.129281068,222.1506373,4.09,'11111222,11111222,11111222' 
TABS,ioos:station:wmo:42045:1,2014-10-03T13:00:00Z,26.2168,-96.4998,4.0,2.702239812,232.3668573,3.3,'11111222,11111222,11111222' 
TABS,ioos:station:wmo:42045:1,2014-10-03T13:30:00Z,26.2168,-96.4998,4.0,2.357159307,230.1634,2.75,'11111222,11111222,11111222' 
TABS,ioos:station:wmo:42045:1,2014-10-03T14:00:00Z,26.2168,-96.4998,4.0,2.758350957,232.2161949,3.23,'11111222,11111222,11111222' 
TABS,ioos:station:wmo:42045:1,2014-10-03T14:30:00Z,26.2168,-96.4998,4.0,1.823869513,247.0902082,2.34,'11111222,11111222,11111222' 
TABS,ioos:station:wmo:42045:1,2014-10-03T15:00:00Z,26.2168,-96.4998,4.0,1.708156901,239.3814662,2.06,'11111222,11111222,11111222' 
TABS,ioos:station:wmo:42045:1,2014-10-03T15:30:00Z,26.2168,-96.4998,4.0,1.701440566,272.3579005,2.14,'11111222,11111222,11111222' 
TABS,ioos:station:wmo:42045:1,2014-10-03T16:00:00Z,26.2168,-96.4998,4.0,0.874642784,275.9061273,1.28,'11111222,11111222,11111222' 
TABS,ioos:station:wmo:42045:1,2014-10-03T16:30:00Z,26.2168,-96.4998,4.0,1.101680534,278.350733,1.73,'11111222,11111222,11111222' 
TABS,ioos:station:wmo:42045:1,2014-10-03T17:00:00Z,26.2168,-96.4998,4.0,6.893221308,335.8516886,9.87,'11111222,11111222,11111222' 
TABS,ioos:station:wmo:42045:1,2014-10-03T17:30:00Z,26.2168,-96.4998,4.0,2.912473176,87.63820995,4.04,'11111222,11111222,11111222' 
TABS,ioos:station:wmo:42045:1,2014-10-03T18:00:00Z,26.2168,-96.4998,4.0,3.712384678,29.53402685,4.39,'11111222,11111222,11111222' 
TABS,ioos:station:wmo:42045:1,2014-10-03T18:30:00Z,26.2168,-96.4998,4.0,3.660833238,39.12392438,4.68,'11111222,11111222,11111222' 
TABS,ioos:station:wmo:42045:1,2014-10-03T19:00:00Z,26.2168,-96.4998,4.0,4.371647287,21.04666107,5.51,'11111222,11111222,11111222' 
TABS,ioos:station:wmo:42045:1,2014-10-03T19:30:00Z,26.2168,-96.4998,4.0,6.106005241,36.94466892,7.82,'11111222,11111222,11111222' 
TABS,ioos:station:wmo:42045:1,2014-10-03T20:00:00Z,26.2168,-96.4998,4.0,5.957616973,42.95913494,8.28,'11111222,11111222,11111222' 
TABS,ioos:station:wmo:42045:1,2014-10-03T20:30:00Z,26.2168,-96.4998,4.0,5.661377924,47.290289,8.01,'11111222,11111222,11111222' 
TABS,ioos:station:wmo:42045:1,2014-10-03T21:00:00Z,26.2168,-96.4998,4.0,5.912596722,53.94379174,8.56,'11111222,11111222,11111222' 
TABS,ioos:station:wmo:42045:1,2014-10-03T21:30:00Z,26.2168,-96.4998,4.0,6.114940719,60.08044036,8.11,'11111222,11111222,11111222' 
TABS,ioos:station:wmo:42045:1,2014-10-03T22:00:00Z,26.2168,-96.4998,4.0,6.126989473,63.01638106,7.51,'11111222,11111222,11111222' 
TABS,ioos:station:wmo:42045:1,2014-10-03T22:30:00Z,26.2168,-96.4998,4.0,5.910820586,65.29896788,7.28,'11111222,11111222,11111222' 
TABS,ioos:station:wmo:42045:1,2014-10-03T23:00:00Z,26.2168,-96.4998,4.0,6.2560211,72.60735059,7.69,'11111222,11111222,11111222' 
TABS,ioos:station:wmo:42045:1,2014-10-03T23:30:00Z,26.2168,-96.4998,4.0,5.918487983,67.55104282,7.13,'11111222,11111222,11111222' 
TABS,ioos:station:wmo:42045:1,2014-10-04T00:00:00Z,26.2168,-96.4998,4.0,6.472480205,62.28645505,8.0,'11111222,11111222,11111222' 
TABS,ioos:station:wmo:42045:1,2014-10-04T00:30:00Z,26.2168,-96.4998,4.0,6.517929119,58.04086011,7.67,'11111222,11111222,11111222' 
TABS,ioos:station:wmo:42045:1,2014-10-04T01:00:00Z,26.2168,-96.4998,4.0,6.412643761,60.47641283,7.61,'11111222,11111222,11111222' 
TABS,ioos:station:wmo:42045:1,2014-10-04T01:30:00Z,26.2168,-96.4998,4.0,6.672480798,63.66500023,8.44,'11111222,11111222,11111222' 
TABS,ioos:station:wmo:42045:1,2014-10-04T02:00:00Z,26.2168,-96.4998,4.0,7.235316164,54.22264022,9.15,'11111222,11111222,11111222' 
TABS,ioos:station:wmo:42045:1,2014-10-04T02:30:00Z,26.2168,-96.4998,4.0,6.998114032,59.99073398,8.81,'11111222,11111222,11111222' 
TABS,ioos:station:wmo:42045:1,2014-10-04T03:00:00Z,26.2168,-96.4998,4.0,7.276977394,61.25094309,9.34,'11111222,11111222,11111222' 
TABS,ioos:station:wmo:42045:1,2014-10-04T03:30:00Z,26.2168,-96.4998,4.0,7.895885004,64.89506912,9.96,'11111222,11111222,11111222' 
TABS,ioos:station:wmo:42045:1,2014-10-04T04:00:00Z,26.2168,-96.4998,4.0,7.762705714,70.117414,9.71,'11111222,11111222,11111222' 
TABS,ioos:station:wmo:42045:1,2014-10-04T04:30:00Z,26.2168,-96.4998,4.0,7.912224719,69.89278415,10.62,'11111222,11111222,11111222' 
TABS,ioos:station:wmo:42045:1,2014-10-04T05:00:00Z,26.2168,-96.4998,4.0,7.686019776,68.47507585,10.15,'11111222,11111222,11111222' 
TABS,ioos:station:wmo:42045:1,2014-10-04T05:30:00Z,26.2168,-96.4998,4.0,7.974139452,72.85991155,9.92,'11111222,11111222,11111222' 
TABS,ioos:station:wmo:42045:1,2014-10-04T06:00:00Z,26.2168,-96.4998,4.0,7.90626334,72.25218812,9.98,'11111222,11111222,11111222' 
TABS,ioos:station:wmo:42045:1,2014-10-04T06:30:00Z,26.2168,-96.4998,4.0,8.106719435,74.9862484,10.07,'11111222,11111222,11111222' 
TABS,ioos:station:wmo:42045:1,2014-10-04T07:00:00Z,26.2168,-96.4998,4.0,7.964169762,74.11351225,9.68,'11111222,11111222,11111222' 
TABS,ioos:station:wmo:42045:1,2014-10-04T07:30:00Z,26.2168,-96.4998,4.0,8.316850365,71.78252648,10.34,'11111222,11111222,11111222' 
TABS,ioos:station:wmo:42045:1,2014-10-04T08:00:00Z,26.2168,-96.4998,4.0,7.652711938,71.56467337,9.48,'11111222,11111222,11111222' 
TABS,ioos:station:wmo:42045:1,2014-10-04T08:30:00Z,26.2168,-96.4998,4.0,8.008027223,69.6864296,10.21,'11111222,11111222,11111222' 
TABS,ioos:station:wmo:42045:1,2014-10-04T09:00:00Z,26.2168,-96.4998,4.0,7.905472788,58.07877751,10.52,'11111222,11111222,11111222' 
TABS,ioos:station:wmo:42045:1,2014-10-04T09:30:00Z,26.2168,-96.4998,4.0,7.553522357,63.16320948,9.27,'11111222,11111222,11111222' 
TABS,ioos:station:wmo:42045:1,2014-10-04T10:00:00Z,26.2168,-96.4998,4.0,7.426560442,68.92888312,9.28,'11111222,11111222,11111222' 
TABS,ioos:station:wmo:42045:1,2014-10-04T10:30:00Z,26.2168,-96.4998,4.0,7.80566461,76.81793247,9.88,'11111222,11111222,11111222' 
TABS,ioos:station:wmo:42045:1,2014-10-04T11:00:00Z,26.2168,-96.4998,4.0,7.19205812,68.46450361,9.51,'11111222,11111222,11111222' 
TABS,ioos:station:wmo:42045:1,2014-10-04T11:30:00Z,26.2168,-96.4998,4.0,7.455642159,64.15633263,9.33,'11111222,11111222,11111222' 
TABS,ioos:station:wmo:42045:1,2014-10-04T12:00:00Z,26.2168,-96.4998,4.0,7.12795202,69.81049484,9.32,'11111222,11111222,11111222' 
TABS,ioos:station:wmo:42045:1,2014-10-04T12:30:00Z,26.2168,-96.4998,4.0,6.826331372,70.13125385,8.34,'11111222,11111222,11111222' 
TABS,ioos:station:wmo:42045:1,2014-10-04T13:00:00Z,26.2168,-96.4998,4.0,7.102288364,69.90624271,9.04,'11111222,11111222,11111222' 
TABS,ioos:station:wmo:42045:1,2014-10-04T13:30:00Z,26.2168,-96.4998,4.0,6.642085516,69.46377423,7.89,'11111222,11111222,11111222' 
TABS,ioos:station:wmo:42045:1,2014-10-04T14:00:00Z,26.2168,-96.4998,4.0,7.184935629,79.73755191,9.37,'11111222,11111222,11111222' 
TABS,ioos:station:wmo:42045:1,2014-10-04T14:30:00Z,26.2168,-96.4998,4.0,6.905541253,76.68782693,8.51,'11111222,11111222,11111222' 
TABS,ioos:station:wmo:42045:1,2014-10-04T15:00:00Z,26.2168,-96.4998,4.0,6.787554788,74.7963205,8.53,'11111222,11111222,11111222' 
TABS,ioos:station:wmo:42045:1,2014-10-04T15:30:00Z,26.2168,-96.4998,4.0,6.372103263,79.23633699,8.25,'11111222,11111222,11111222' 
TABS,ioos:station:wmo:42045:1,2014-10-04T16:00:00Z,26.2168,-96.4998,4.0,6.609334308,83.74556096,8.55,'11111222,11111222,11111222' 
TABS,ioos:station:wmo:42045:1,2014-10-04T16:30:00Z,26.2168,-96.4998,4.0,6.515282035,81.88193239,8.36,'11111222,11111222,11111222' 
TABS,ioos:station:wmo:42045:1,2014-10-04T17:00:00Z,26.2168,-96.4998,4.0,6.292002861,73.09104381,7.87,'11111222,11111222,11111222' 
TABS,ioos:station:wmo:42045:1,2014-10-04T17:30:00Z,26.2168,-96.4998,4.0,6.106594796,72.06907565,8.01,'11111222,11111222,11111222' 
TABS,ioos:station:wmo:42045:1,2014-10-04T18:00:00Z,26.2168,-96.4998,4.0,5.88319641,72.79664789,7.52,'11111222,11111222,11111222' 
TABS,ioos:station:wmo:42045:1,2014-10-04T18:30:00Z,26.2168,-96.4998,4.0,5.572970483,72.67012752,6.93,'11111222,11111222,11111222' 
TABS,ioos:station:wmo:42045:1,2014-10-04T19:00:00Z,26.2168,-96.4998,4.0,5.095694261,75.79974495,6.61,'11111222,11111222,11111222' 